Location: Bouillancy
(49.1149°N, 2.9308°E)
Time: 07:30:52
(UTC+00:00)

Cosmos 407 Rocket - Pass Details

Date: 30 September 2020
Orbit: 744 x 786 km, 74.0° (Epoch: 29 October)

Event Time Altitude Azimuth Distance (km) Brightness Sun altitude
Rises 19:15:27 0° 341° (NNW) 3,203 7.2 -18.2°
Reaches altitude 10° 19:18:03 10° 352° (N) 2,280 6.3 -18.6°
Maximum altitude 19:22:41 33° 56° (NE) 1,263 4.3 -19.3°
Enters shadow 19:23:23 31° 72° (ENE) 1,295 4.2 -19.4°
